Regional Weather Roundup
Issued by NWS

Home | Current Version | Previous Version | Text Only | Print | Product List | Glossary On
Versions: 1 2 3 4 5 6 7 8 9 10 11 12 13 14 15 16 17 18 19 20 21 22 23 24 25 26 27 28 29 30 31 32 33 34 35 36 37 38 39 40 41 42 43 44 45 46 47 48 49 50
000
ASUS44 KOUN 050210
RWROK

WEATHER ROUNDUP FOR OKLAHOMA
NATIONAL WEATHER SERVICE NORMAN OK
900 PM CDT TUE AUG 04 2015

NOTE: "FAIR" INDICATES FEW OR NO CLOUDS BELOW 12,000 FEET WITH NO
      SIGNIFICANT WEATHER AND/OR OBSTRUCTIONS TO VISIBILITY.

OKZ001>007-009>012-014-015-017-050300-
NORTHWEST OKLAHOMA AND THE PANHANDLE

CITY           SKY/WX    TMP DP  RH WIND       PRES   REMARKS
GAGE           CLEAR     80  71  74 SE7       29.92R
GUYMON         MOCLDY    81  69  67 SE8       29.93R
ENID/WOODRING  MOCLDY    86  70  58 SE12      29.89R HX  90
$$

OKZ016-021>023-033>039-044-045-050300-
SOUTHWEST OKLAHOMA

CITY           SKY/WX    TMP DP  RH WIND       PRES   REMARKS
LAWTON/REGL    CLEAR     83  73  72 SE6       29.89R
LAWTON/FT SILL CLEAR     84  73  70 SE6       29.88R HX  90
FREDERICK      CLEAR     84  74  71 SE8       29.86R HX  91
CLINTON        CLEAR     85  70  60 SE8       29.94R
HOBART         CLEAR     83  71  67 SE8       29.90S
ALTUS AFB      CLEAR     83  72  69 SE6       29.88R
$$

OKZ018>020-024>031-050300-
CENTRAL OKLAHOMA

CITY           SKY/WX    TMP DP  RH WIND       PRES   REMARKS
OKLAHOMA CITY  PTCLDY    79  75  87 SE7       29.92R
OKC/WILEY POST CLEAR     83  73  72 SE7       29.92R
OKC/TINKER AFB CLEAR     79  73  81 SE3       29.92R
STILLWATER     CLEAR     82  72  71 SE10      29.92R
GUTHRIE        PTCLDY    81  71  71 SE7       29.92R
$$

OKZ008-013-054>072-050300-
NORTHEAST OKLAHOMA

CITY           SKY/WX    TMP DP  RH WIND       PRES   REMARKS
TULSA          PTCLDY    80  72  76 SE7       29.91S
TULSA/JONES    MOCLDY    80  71  74 SE6       29.92S
PONCA CITY     CLEAR     79  71  76 SE9       29.92R
BARTLESVILLE   PTCLDY    76  73  91 E3        29.94S
MUSKOGEE       MOCLDY    80  74  81 NE3       29.93S
$$

OKZ032-040>043-046>053-073>077-050300-
SOUTH CENTRAL/SOUTHEAST OKLAHOMA

CITY           SKY/WX    TMP DP  RH WIND       PRES   REMARKS
ARDMORE/DWNTWN CLEAR     81  72  74 CALM      29.89S
MCALESTER      MOCLDY    81  71  71 E5        29.93R
$$



USA.gov is the U.S. government's official web portal to all federal, state and local government web resources and services.